Regional Weather Roundup
Issued by NWS

Home | Current Version | Previous Version | Text Only | Print | Product List | Glossary On
Versions: 1 2 3 4 5 6 7 8 9 10 11 12 13 14 15 16 17 18 19 20 21 22 23 24 25 26 27 28 29 30 31 32 33 34 35 36 37 38 39 40 41 42 43 44 45 46 47 48 49 50
000
ASUS45 KPSR 290310
RWRAZ

ARIZONA REGIONAL HOURLY WEATHER ROUNDUP
NATIONAL WEATHER SERVICE PHOENIX AZ
800 PM MST SUN DEC 28 2014

NOTE: FAIR INDICATES FEW OR NO CLOUDS BELOW 12,000 FEET WITH NO
SIGNIFICANT WEATHER AND/OR OBSTRUCTIONS TO VISIBILITY.

AZZ001>003-036-290400-
NORTHWEST ARIZONA

CITY           SKY/WX    TMP DP  RH WIND       PRES   REMARKS
BULLHEAD CITY  LGT RAIN  43  16  33 SE3       30.19F
KINGMAN        CLEAR     30  13  49 S10       30.14S WCI  21
$$

AZZ004>008-015-016-018-290400-
NORTH CENTRAL ARIZONA

CITY           SKY/WX    TMP DP  RH WIND       PRES   REMARKS
GRAND CANYON   CLEAR     14   8  77 CALM      30.09S
PRESCOTT       CLEAR     30  11  45 S5        30.12S WCI  25
FLAGSTAFF      CLEAR     24   7  48 SW7       30.09S WCI  16
PAYSON         CLEAR     30  12  47 CALM      30.15S
PAGE           CLEAR     32  11  41 SW6       30.05R WCI  26
$$

AZZ009>014-017-290400-
NORTHEAST ARIZONA

CITY           SKY/WX    TMP DP  RH WIND       PRES   REMARKS
WINSLOW        CLEAR     26   9  48 SW3       30.07F
SAINT JOHNS    CLEAR     25  10  53 CALM      30.07S
WINDOW ROCK    CLEAR     19   5  54 CALM      30.06S
SHOW LOW       CLEAR     28   7  40 S17       30.11F WCI  16
$$

AZZ023-290400-
GREATER PHOENIX AREA

CITY           SKY/WX    TMP DP  RH WIND       PRES   REMARKS
PHOENIX        PTCLDY    50  23  34 SW3       30.13S
BUCKEYE          N/A     39  23  52 N6        30.16S WCI  35
LUKE AFB       CLEAR     44  29  55 NW3       30.14S
DEER VALLEY    CLEAR     43  23  45 CALM      30.14S
SCOTTSDALE     CLEAR     49  20  31 N3        30.15F
MESA-FALCON    PTCLDY    45  19  36 MISG      30.14S
MESA-GATEWAY   PTCLDY    46  23  39 CALM      30.17R
CHANDLER       MOCLDY    46  23  39 CALM      30.15S
$$

AZZ027-028-290400-
SOUTHWEST MARICOPA COUNTY AND PINAL COUNTY

CITY           SKY/WX    TMP DP  RH WIND       PRES   REMARKS
CASA GRANDE    CLEAR     43  23  45 CALM      30.15S
GILA BEND      FAIR      43  24  45 S3        30.17R
$$

AZZ503-504-507>509-290400-
SOUTHEAST ARIZONA

CITY           SKY/WX    TMP DP  RH WIND       PRES   REMARKS
TUCSON         MOCLDY    47  23  38 W6        30.17R
DAVIS-MONTHAN  MOCLDY    46  23  41 NW3       30.14R
RYAN FIELD       N/A     48  28  46 W8        30.17R
NOGALES        MOCLDY    44  19  36 CALM      30.14R
SIERRA VISTA   MOCLDY    40  17  39 S6        30.14R
DOUGLAS        CLOUDY    42  27  55 E5        30.13S
SAFFORD        PTCLDY    42  24  49 N6        30.13R
$$

AZZ020-021-025-026-031-290400-
SOUTHWEST ARIZONA

CITY           SKY/WX    TMP DP  RH WIND       PRES   REMARKS
YUMA           PTCLDY   N/A N/A N/A N3        30.18R
$$

CAZ031-033-041-043-047-048-061-290400-
SOUTHERN CALIFORNIA

CITY           SKY/WX    TMP DP  RH WIND       PRES   REMARKS
DOWNTOWN L.A.  CLEAR     52  40  63 CALM      30.19R
L.A. AIRPORT   PTCLDY    55  44  66 W3        30.19S
SAN DIEGO      PTCLDY    56  40  55 CALM      30.22R
BURBANK        CLEAR     51  36  56 CALM      30.17S
ONTARIO        PTCLDY    51  27  39 W3        30.18S
RIVERSIDE      CLEAR     51  30  44 CALM      30.18S
PALM SPRINGS   CLEAR     49  21  33 N7        30.19S
EL CENTRO NAS  CLEAR     49  13  23 CALM      30.18R
IMPERIAL       CLEAR     47  16  29 CALM      30.18R
BLYTHE         CLEAR     44  22  41 CALM      30.18S
NEEDLES        CLEAR     42  13  30 W8        30.18S
$$

NVZ020-UTZ003-290400-
SOUTHERN NEVADA-UTAH

CITY           SKY/WX    TMP DP  RH WIND       PRES   REMARKS
LAS VEGAS      CLEAR     42  13  30 S7        30.09F
SALT LAKE CITY LGT SNOW  28  27  96 SE5       30.05F FOG     WCI  23
$$

NMZ009-TXZ055-290400-
NEW MEXICO-WEST TEXAS

CITY           SKY/WX    TMP DP  RH WIND       PRES   REMARKS
ALBUQUERQUE    PTCLDY    25  13  60 E5        30.07F WCI  19
EL PASO        PTCLDY    43  25  49 S6        30.12R
$$


........................KEY........................
SKY/WX - SKY CONDITION/WEATHER
TMP    - TEMPERATURE IN FAHRENHEIT
DP     - DEW POINT IN FAHRENHEIT
RH     - RELATIVE HUMIDITY IN PERCENT
WIND   - DIRECTION AND SPEED IN MILES PER HOUR (MPH)
VRB    - VARIABLE WIND DIRECTION
PRES   - MEAN SEA LEVEL PRESSURE IN INCHES OF MERCURY
         F - FALLING PRESSURE   R - RISING PRESSURE
         S - STEADY PRESSURE
VSB    - VISIBILITY IN MILES
HX     - HEAT INDEX IN FAHRENHEIT
WCI    - WIND CHILL INDEX IN FAHRENHEIT
TC     - TEMPERATURE IN CELSIUS WHICH IS ALSO KNOWN AS
         TEMPERATURE IN CENTIGRADE
AFB    - AIR FORCE BASE
         LUKE AFB IS LUKE AIR FORCE BASE
         DAVIS-MONTHAN IS DAVIS-MONTHAN AIR FORCE BASE
NAS    - NAVAL AIR STATION
         EL CENTRO NAS IS EL CENTRO NAVAL AIR STATION
N/A    - NOT AVAILABLE



USA.gov is the U.S. government's official web portal to all federal, state and local government web resources and services.